Location: Newark
(52.1031°N, 9.3600°E)
Time: 20:55:25
(UTC+00:00)

nSIGHT-1 - Pass Details

Date: 17 December 2019
Orbit: 312 x 315 km, 51.6° (Epoch: 28 January)

Event Time Altitude Azimuth Distance (km) Brightness Sun altitude
Exits shadow 06:31:50 - 273° (W) 1,272 ? -7.8°
Reaches altitude 10° 06:31:57 10° 273° (W) 1,219 ? -7.8°
Maximum altitude 06:34:39 76° 188° (S) 329 ? -7.4°
Drops below altitude 10° 06:37:20 10° 102° (ESE) 1,211 ? -7.0°
Sets 06:39:18 0° 101° (E) 2,038 ? -6.8°
